Regional Weather Roundup
Issued by NWS

Home | Current Version | Previous Version | Text Only | Print | Product List | Glossary Off
Versions: 1 2 3 4 5 6 7 8 9 10 11 12 13 14 15 16 17 18 19 20 21 22 23 24 25 26 27 28 29 30 31 32 33 34 35 36 37 38 39 40 41 42 43 44 45 46 47 48 49 50

000
ASUS43 KLSX 301510
RWRMO

WEATHER SUMMARY FOR MISSOURI
NATIONAL WEATHER SERVICE SPRINGFIELD MO
1000 AM CDT TUE AUG 30 2016

NOTE: "FAIR" INDICATES FEW OR NO CLOUDS BELOW 12,000 FEET WITH NO
       SIGNIFICANT WEATHER AND/OR OBSTRUCTIONS TO VISIBILITY.
       CURRENT SKY AND/OR WEATHER CONDITIONS ARE NOT AVAILABLE FOR
       CHILLICOTHE AND FARMINGTON.

MOZ001>031-035>038-043-044-053-054-301600-
...NORTHERN AND WESTERN MISSOURI...

CITY           SKY/WX    TMP DP  RH WIND       PRES   REMARKS
KANSAS CTY INT CLOUDY    76  70  82 NE7       30.18R
KANSAS C DTWN  SUNNY     80  71  74 VRB3      30.15R
LEE`S SUMMIT   PTSUNNY   75  70  84 CALM      30.17R
ST JOSEPH      PTSUNNY   74  71  91 N10       30.19R
CHILLICOTHE      N/A     79  72  79 N3        30.17R
KIRKSVILLE     CLOUDY    73  69  87 NE5       30.18S

$$
MOZ066>068-077>081-088>096-101>105-301600-
...SOUTHWEST MISSOURI...

CITY           SKY/WX    TMP DP  RH WIND       PRES   REMARKS
SPRINGFIELD    SUNNY     85  73  67 VRB3      30.16R HX  91
JOPLIN         CLOUDY    82  73  74 CALM      30.16S
BRANSON        MOSUNNY   77  73  88 CALM      30.17S

$$
MOZ032>034-039>042-045>050-055>058-069>072-301600-
...CENTRAL MISSOURI...

CITY           SKY/WX    TMP DP  RH WIND       PRES   REMARKS
COLUMBIA       CLOUDY    81  74  79 N6        30.16S
JEFFERSON CITY CLOUDY    80  74  81 NW3       30.14F
ROLLA          SUNNY     83  73  72 W5        30.16R
SEDALIA        SUNNY     81  71  71 NE7       30.17S
WHITEMAN AFB   MOSUNNY   78  75  89 NE3       30.15R
OSAGE BEACH    PTSUNNY   82  72  71 W5        30.17R

$$
MOZ051-052-059>065-301600-
...EAST CENTRAL MISSOURI...

CITY           SKY/WX    TMP DP  RH WIND       PRES   REMARKS
ST LOUIS INTL  MOSUNNY   87  71  58 S3        30.14S HX  93
SPIRIT OF STL  MOSUNNY   85  75  72 CALM      30.12F HX  93
ST CHARLES     SUNNY     84  74  71 CALM      30.12F HX  91

$$
MOZ072>076-082>087-097>100-106>115-301600-
...SOUTH CENTRAL AND SOUTHEAST MISSOURI...

CITY           SKY/WX    TMP DP  RH WIND       PRES   REMARKS
CAPE GIRARDEAU SUNNY     84  73  69 E3        30.11F HX  90
FARMINGTON     SUNNY     82  73  74 CALM      30.16S
POPLAR BLUFF   SUNNY     83  75  77 E5        30.11S HX  90
WEST PLAINS    SUNNY     83  73  72 CALM      30.18R

$$




USA.gov is the U.S. government's official web portal to all federal, state and local government web resources and services.